Weather in Miasskoe

Russia / Chelyabinsk Oblast     55°16′55″N   61°53′29″E
temp.,
°C
wind,
m/s
gust,
m/s
humid.,
%
clouds,
%
prec.,
mm/h
press.,
hPa
HPBL,
m
16 april, fri
fri1623:00+12wnw33665 0.0 102027
02:00+10wnw36760 0.0 102076
05:00+9wnw34770 0.0 102049
08:00+10n497891 0.0 1021333
11:00+7nne61083100 0.0 1023570
14:00+7ne6874100 0.0 1025743
17:00+7ne4771100 0.0 1026710
20:00+6nne0177100 0.0 102610
17 april, sat
sat1723:00+6nne2277100 0.0 102638
02:00+5ene347199 0.0 102692
05:00+4ese237397 0.0 102655
08:00+5ese236890 0.0 1026137
11:00+8sse225399 0.0 1026781
14:00+10ssw325359 0.0 10241254
17:00+10w3455100 0.0 10231318
20:00+8sw23638 0.0 102267
18 april, sun
sun1823:00+5wsw48845 0.0 1021146
02:00+4nw38735 0.0 1020144
05:00+2wnw48772 0.0 1019149
08:00+5wnw612660 0.0 1018636
11:00+8nw8115292 0.0 10181778
14:00+5n91060100 0.1 10211449
17:00+4nne101040100 0.1 10251947
20:00+1ne710495 0.0 1028960
19 april, mon
mon1923:00−1ne49505 0.0 1030562
02:00−2ne68480 0.0 1032826
05:00−3nne57460 0.0 10341125
08:00−3ne56415 0.0 10361267
11:00−1ne56345 0.0 10361512
14:00+1ne56325 0.0 10361818
17:00+1ne563258 0.0 10351946
20:00−1nne35435 0.0 1036116
20 april, tue
tue2023:00−2n11440 0.0 103710
02:00−2nw22430 0.0 103741
05:00−3nw35481 0.0 1037106
08:000nw45373 0.0 1038413
11:00+4nw34305 0.0 10371463
14:00+6nw45301 0.0 10351668
17:00+8nw35303 0.0 10341753
20:00+5nw22420 0.0 103410